Tracking 19847 objects as of 16-Sep-2019
HD Live streaming from Space Station
objects crossing your sky now

COSMOS 1275 DEB

Track COSMOS 1275 DEB now!
10-day predictions


NORAD ID: 14406
Int'l Code: 1981-053JE
Perigee: 849.4 km
Apogee: 895.3 km
Inclination: 82.8 °
Period: 102.3 minutes
Semi major axis: 7243 km
RCS: 0.0178 m2 (small)
Launch date: June 4, 1981
Source: Commonwealth of Independent States (former USSR) (CIS)
Launch site: PLESETSK MISSILE AND SPACE COMPLEX (PKMTR)

Note: This is SATELLITE DEBRIS
aabbcc
Your satellite tracking list
Your tracking list is empty




NASA's NSSDC Master Catalog

Two Line Element Set (TLE):
1 14406U 81053JB  19258.87512522  .00000580  00000-0  32857-3 0  9990
2 14406  82.8455 198.8995 0031688 303.3958 109.9144 14.08299831873927
Source of the keplerian elements: AFSPC